WZZ9QM ENBR-EPGD

Flight info

Callsign WZZ9QM
Flight time N/A
Altitude 35000
Route TINI2D TINIG DCT ULMUG DCT REPKU DCT PENOR DCT MOTAD N133 DOMAG T240 OGDAV OGDA5R
Aircraft A321/M-SDE3FGHIRWY/LB1

Departure

Time 2026-05-06 15:50
Airport Bergen Airport, Flesland (ENBR)

Arrival

Time N/A
Airport Gdańsk Lech Wałęsa Airport (EPGD)
Time Latitude Longitude Altitude Speed Heading
2026-05-06 15:23 60.28897 5.22530 174 ft 0 kts 83°
2026-05-06 15:31 60.28896 5.22530 174 ft 0 kts 83°
2026-05-06 15:38 60.28896 5.22528 174 ft 2 kts 83°
2026-05-06 15:38 60.28892 5.22480 174 ft 3 kts 79°
2026-05-06 15:38 60.28885 5.22437 174 ft 4 kts 45°
2026-05-06 15:38 60.28865 5.22421 174 ft 4 kts 352°
2026-05-06 15:39 60.28851 5.22426 174 ft 1 kts 349°
2026-05-06 15:39 60.28849 5.22426 174 ft 2 kts 349°
2026-05-06 15:43 60.28855 5.22424 174 ft 2 kts 349°
2026-05-06 15:43 60.28883 5.22414 174 ft 9 kts 349°
2026-05-06 15:43 60.28932 5.22366 174 ft 7 kts 294°
2026-05-06 15:44 60.28949 5.22276 174 ft 7 kts 321°
2026-05-06 15:44 60.29013 5.22252 174 ft 13 kts 351°
2026-05-06 15:44 60.29127 5.22214 174 ft 20 kts 350°
2026-05-06 15:44 60.29263 5.22162 179 ft 19 kts 351°
2026-05-06 15:45 60.29403 5.22115 176 ft 22 kts 350°
2026-05-06 15:45 60.29539 5.22068 175 ft 19 kts 351°
2026-05-06 15:45 60.29684 5.22020 170 ft 23 kts 351°
2026-05-06 15:45 60.29834 5.21973 168 ft 20 kts 351°
2026-05-06 15:46 60.29975 5.21934 168 ft 21 kts 353°
2026-05-06 15:46 60.30117 5.21886 171 ft 19 kts 350°
2026-05-06 15:46 60.30254 5.21837 169 ft 21 kts 350°
2026-05-06 15:46 60.30396 5.21787 172 ft 20 kts 352°
2026-05-06 15:47 60.30498 5.21756 173 ft 13 kts 351°
2026-05-06 15:47 60.30584 5.21731 176 ft 12 kts 351°
2026-05-06 15:47 60.30660 5.21688 178 ft 11 kts 320°
2026-05-06 15:47 60.30667 5.21589 178 ft 4 kts 259°
2026-05-06 15:48 60.30665 5.21575 178 ft 1 kts 259°
2026-05-06 15:48 60.30664 5.21558 178 ft 0 kts 259°
2026-05-06 15:48 60.30664 5.21554 178 ft 1 kts 259°
2026-05-06 15:48 60.30658 5.21492 179 ft 6 kts 259°
2026-05-06 15:49 60.30652 5.21425 180 ft 4 kts 259°
2026-05-06 15:49 60.30639 5.21398 180 ft 3 kts 195°
2026-05-06 15:49 60.30615 5.21405 179 ft 5 kts 174°
2026-05-06 15:49 60.30471 5.21445 171 ft 55 kts 171°
2026-05-06 15:50 60.29831 5.21654 175 ft 126 kts 170°
2026-05-06 15:50 60.28797 5.22002 278 ft 170 kts 173°
2026-05-06 15:50 60.27648 5.22370 1079 ft 167 kts 176°
2026-05-06 15:50 60.26476 5.22722 1852 ft 171 kts 174°
2026-05-06 15:51 60.25283 5.23115 2419 ft 182 kts 174°
2026-05-06 15:51 60.23961 5.23558 2737 ft 204 kts 173°
2026-05-06 15:51 60.22483 5.24058 2999 ft 228 kts 172°
2026-05-06 15:51 60.20931 5.25283 3327 ft 256 kts 143°
2026-05-06 15:52 60.19857 5.28211 3949 ft 268 kts 111°
2026-05-06 15:52 60.19228 5.31773 4798 ft 272 kts 109°
2026-05-06 15:52 60.18616 5.35390 5665 ft 274 kts 109°
2026-05-06 15:52 60.18000 5.39036 6530 ft 277 kts 109°
2026-05-06 15:53 60.17372 5.42733 7345 ft 281 kts 109°
2026-05-06 15:53 60.16735 5.46443 8195 ft 283 kts 110°
2026-05-06 15:53 60.16087 5.50196 9010 ft 286 kts 110°
2026-05-06 15:53 60.15429 5.53989 9813 ft 290 kts 110°
2026-05-06 15:54 60.14753 5.57863 10391 ft 302 kts 110°
2026-05-06 15:54 60.14034 5.61995 10603 ft 325 kts 110°
2026-05-06 15:54 60.13262 5.66433 10810 ft 346 kts 110°
2026-05-06 15:54 60.12454 5.71060 11324 ft 356 kts 110°
2026-05-06 15:55 60.11627 5.75784 11924 ft 363 kts 110°
2026-05-06 15:55 60.10772 5.80671 12170 ft 381 kts 110°
2026-05-06 15:55 60.09867 5.85816 12343 ft 400 kts 110°
2026-05-06 15:55 60.08926 5.91136 12835 ft 410 kts 110°
2026-05-06 15:56 60.07960 5.96561 13398 ft 417 kts 110°
2026-05-06 15:56 60.06975 6.02074 13962 ft 424 kts 111°
2026-05-06 15:56 60.05975 6.07678 14508 ft 430 kts 111°
2026-05-06 15:56 60.04962 6.13350 15073 ft 435 kts 111°
2026-05-06 15:57 60.03934 6.19094 15646 ft 441 kts 111°
2026-05-06 15:57 60.02891 6.24895 16202 ft 446 kts 112°
2026-05-06 15:57 60.01830 6.30764 16710 ft 451 kts 112°
2026-05-06 15:57 60.00687 6.36622 17273 ft 453 kts 118°
2026-05-06 15:58 59.99331 6.42319 17791 ft 456 kts 119°
2026-05-06 15:58 59.97959 6.48058 18306 ft 460 kts 120°
2026-05-06 15:58 59.96591 6.53769 18731 ft 464 kts 120°
2026-05-06 15:58 59.95174 6.59679 19162 ft 468 kts 120°
2026-05-06 15:59 59.93784 6.65478 19586 ft 471 kts 120°
2026-05-06 15:59 59.92364 6.71393 20032 ft 475 kts 120°
2026-05-06 15:59 59.90928 6.77345 20500 ft 478 kts 120°
2026-05-06 15:59 59.89476 6.83338 20948 ft 482 kts 120°
2026-05-06 16:00 59.88009 6.89365 21380 ft 485 kts 120°
2026-05-06 16:00 59.86528 6.95436 21822 ft 489 kts 120°
2026-05-06 16:00 59.85037 7.01542 22272 ft 493 kts 120°
2026-05-06 16:00 59.83532 7.07695 22712 ft 496 kts 120°
2026-05-06 16:01 59.82015 7.13889 23130 ft 500 kts 120°
2026-05-06 16:01 59.80488 7.20107 23520 ft 503 kts 120°
2026-05-06 16:01 59.78943 7.26360 23852 ft 505 kts 121°
2026-05-06 16:01 59.77391 7.32611 24314 ft 505 kts 121°
2026-05-06 16:02 59.75834 7.38870 24735 ft 506 kts 122°
2026-05-06 16:02 59.74269 7.45137 25093 ft 508 kts 122°
2026-05-06 16:02 59.72695 7.51430 25446 ft 510 kts 122°
2026-05-06 16:02 59.71117 7.57735 25785 ft 512 kts 122°
2026-05-06 16:03 59.69529 7.64058 26110 ft 514 kts 123°
2026-05-06 16:03 59.67930 7.70401 26404 ft 515 kts 123°
2026-05-06 16:03 59.66326 7.76744 26684 ft 517 kts 123°
2026-05-06 16:03 59.64719 7.83088 26994 ft 515 kts 123°
2026-05-06 16:04 59.63115 7.89408 27397 ft 512 kts 123°
2026-05-06 16:04 59.61519 7.95681 27824 ft 510 kts 123°
2026-05-06 16:04 59.59925 8.01923 28223 ft 508 kts 123°
2026-05-06 16:04 59.58352 8.08055 28645 ft 507 kts 124°
2026-05-06 16:05 59.56758 8.14254 29033 ft 506 kts 124°
2026-05-06 16:05 59.55168 8.20426 29431 ft 505 kts 124°
2026-05-06 16:05 59.53577 8.26580 29848 ft 503 kts 124°
2026-05-06 16:05 59.51988 8.32709 30217 ft 502 kts 124°
2026-05-06 16:06 59.50397 8.38823 30516 ft 502 kts 124°
2026-05-06 16:06 59.48804 8.44929 30798 ft 502 kts 124°
2026-05-06 16:06 59.47211 8.51030 31093 ft 500 kts 124°
2026-05-06 16:06 59.45624 8.57100 31417 ft 499 kts 124°
2026-05-06 16:07 59.44034 8.63151 31694 ft 498 kts 124°
2026-05-06 16:07 59.42438 8.69192 31991 ft 498 kts 124°
2026-05-06 16:07 59.40838 8.75227 32278 ft 498 kts 124°
2026-05-06 16:07 59.39238 8.81254 32539 ft 498 kts 124°
2026-05-06 16:08 59.37635 8.87284 32789 ft 498 kts 124°
2026-05-06 16:08 59.36032 8.93309 33052 ft 498 kts 124°
2026-05-06 16:08 59.34427 8.99331 33311 ft 498 kts 124°
2026-05-06 16:08 59.32817 9.05347 33552 ft 498 kts 124°
2026-05-06 16:09 59.31209 9.11349 33763 ft 498 kts 125°
2026-05-06 16:09 59.29595 9.17353 34003 ft 498 kts 125°
2026-05-06 16:09 59.27979 9.23352 34204 ft 498 kts 124°
2026-05-06 16:09 59.26360 9.29337 34370 ft 498 kts 124°
2026-05-06 16:10 59.24741 9.35310 34608 ft 497 kts 124°
2026-05-06 16:10 59.23122 9.41262 34810 ft 496 kts 124°
2026-05-06 16:10 59.21495 9.47217 34923 ft 497 kts 124°
2026-05-06 16:10 59.19866 9.53162 34948 ft 497 kts 124°
2026-05-06 16:11 59.16164 9.64381 34922 ft 490 kts 132°
2026-05-06 16:11 59.12239 9.75219 34947 ft 489 kts 132°
2026-05-06 16:12 59.08307 9.86011 34953 ft 489 kts 132°
2026-05-06 16:12 59.04365 9.96778 34961 ft 489 kts 132°
2026-05-06 16:13 59.00420 10.07524 34969 ft 489 kts 132°
2026-05-06 16:13 58.96468 10.18269 34973 ft 489 kts 132°
2026-05-06 16:14 58.92507 10.28989 34988 ft 489 kts 133°
2026-05-06 16:14 58.88534 10.39666 34954 ft 488 kts 133°
2026-05-06 16:15 58.84578 10.50222 34975 ft 488 kts 133°
2026-05-06 16:15 58.80583 10.60794 34984 ft 487 kts 134°
2026-05-06 16:16 58.76439 10.71058 34984 ft 484 kts 136°
2026-05-06 16:16 58.72160 10.81027 34958 ft 482 kts 137°
2026-05-06 16:17 58.67883 10.90947 34980 ft 482 kts 136°
2026-05-06 16:17 58.63639 11.00905 34985 ft 481 kts 136°
2026-05-06 16:18 58.59408 11.10852 34981 ft 481 kts 136°
2026-05-06 16:18 58.55164 11.20762 34982 ft 481 kts 136°
2026-05-06 16:19 58.50916 11.30643 34936 ft 480 kts 136°
2026-05-06 16:19 58.46664 11.40470 34970 ft 479 kts 136°
2026-05-06 16:20 58.42410 11.50256 34980 ft 479 kts 136°
2026-05-06 16:20 58.38158 11.60008 34981 ft 478 kts 136°
2026-05-06 16:21 58.33904 11.69726 34969 ft 477 kts 137°
2026-05-06 16:21 58.30363 11.77781 34970 ft 477 kts 137°
2026-05-06 16:22 58.26097 11.87451 34975 ft 477 kts 137°
2026-05-06 16:22 58.21824 11.97097 34964 ft 478 kts 137°
2026-05-06 16:23 58.17540 12.06724 34962 ft 477 kts 137°
2026-05-06 16:23 58.13254 12.16315 34967 ft 477 kts 137°
2026-05-06 16:24 58.08955 12.25898 34967 ft 477 kts 137°
2026-05-06 16:24 58.04656 12.35449 34928 ft 477 kts 137°
2026-05-06 16:25 58.00354 12.44958 34942 ft 476 kts 137°
2026-05-06 16:25 57.96049 12.54433 34949 ft 476 kts 137°
2026-05-06 16:26 57.91740 12.63887 34945 ft 476 kts 137°
2026-05-06 16:26 57.87429 12.73316 34948 ft 475 kts 137°
2026-05-06 16:27 57.83111 12.82718 34945 ft 475 kts 137°
2026-05-06 16:27 57.78788 12.92074 34923 ft 474 kts 137°
2026-05-06 16:28 57.74473 13.01379 34947 ft 473 kts 137°
2026-05-06 16:28 57.70193 13.10597 34946 ft 472 kts 137°
2026-05-06 16:29 57.65884 13.19831 34941 ft 471 kts 138°
2026-05-06 16:29 57.61561 13.29038 34943 ft 471 kts 138°
2026-05-06 16:30 57.57942 13.36728 34918 ft 471 kts 138°
2026-05-06 16:30 57.52927 13.47353 34949 ft 469 kts 138°
2026-05-06 16:31 57.48623 13.56448 34961 ft 468 kts 138°
2026-05-06 16:31 57.44318 13.65485 34939 ft 467 kts 137°
2026-05-06 16:32 57.40004 13.74492 34948 ft 466 kts 138°
2026-05-06 16:32 57.35695 13.83483 34955 ft 466 kts 138°
2026-05-06 16:33 57.31379 13.92449 34942 ft 467 kts 137°
2026-05-06 16:34 57.24882 14.05859 34956 ft 467 kts 137°
2026-05-06 16:34 57.20526 14.14735 34966 ft 466 kts 139°
2026-05-06 16:35 57.15955 14.23158 34967 ft 464 kts 142°
2026-05-06 16:35 57.11281 14.31332 34967 ft 464 kts 142°
2026-05-06 16:36 57.06637 14.39529 34970 ft 462 kts 141°
2026-05-06 16:36 57.02045 14.47769 34972 ft 461 kts 140°
2026-05-06 16:37 56.97477 14.55986 34975 ft 459 kts 141°
2026-05-06 16:37 56.92905 14.64156 34973 ft 459 kts 141°
2026-05-06 16:38 56.88327 14.72275 34974 ft 458 kts 141°
2026-05-06 16:38 56.83741 14.80355 34951 ft 458 kts 140°
2026-05-06 16:39 56.79193 14.88352 34971 ft 456 kts 140°
2026-05-06 16:39 56.74620 14.96368 34966 ft 456 kts 140°
2026-05-06 16:40 56.70046 15.04368 34971 ft 456 kts 140°
2026-05-06 16:40 56.65477 15.12352 34978 ft 456 kts 140°
2026-05-06 16:41 56.60896 15.20307 34979 ft 455 kts 140°
2026-05-06 16:41 56.56304 15.28229 34964 ft 456 kts 140°
2026-05-06 16:42 56.51705 15.36157 34976 ft 456 kts 140°
2026-05-06 16:42 56.47102 15.44069 34979 ft 457 kts 140°
2026-05-06 16:43 56.42487 15.51963 34982 ft 457 kts 140°
2026-05-06 16:43 56.37863 15.59848 34979 ft 457 kts 140°
2026-05-06 16:44 56.33233 15.67715 34980 ft 457 kts 140°
2026-05-06 16:44 56.28596 15.75581 34959 ft 458 kts 140°
2026-05-06 16:45 56.23942 15.83437 34948 ft 459 kts 140°
2026-05-06 16:45 56.19276 15.91275 34956 ft 460 kts 140°
2026-05-06 16:46 56.14597 15.99108 34966 ft 460 kts 140°
2026-05-06 16:46 56.09919 16.06928 34966 ft 460 kts 140°
2026-05-06 16:47 56.05235 16.14737 34954 ft 460 kts 141°
2026-05-06 16:47 56.00533 16.22527 34947 ft 461 kts 140°
2026-05-06 16:48 55.95823 16.30304 34952 ft 462 kts 140°
2026-05-06 16:48 55.91104 16.38089 34954 ft 462 kts 140°
2026-05-06 16:49 55.86376 16.45857 34947 ft 462 kts 141°
2026-05-06 16:49 55.81666 16.53544 34951 ft 463 kts 141°
2026-05-06 16:50 55.76921 16.61269 34953 ft 463 kts 141°
2026-05-06 16:50 55.72174 16.68994 34951 ft 463 kts 141°
2026-05-06 16:51 55.67420 16.76693 34934 ft 463 kts 141°
2026-05-06 16:51 55.62651 16.84372 34934 ft 464 kts 141°
2026-05-06 16:52 55.57870 16.92051 34936 ft 464 kts 141°
2026-05-06 16:52 55.53091 16.99715 34935 ft 463 kts 142°
2026-05-06 16:53 55.48395 17.07229 34918 ft 451 kts 142°
2026-05-06 16:53 55.46068 17.10940 34332 ft 454 kts 142°
2026-05-06 16:53 55.43705 17.14690 33383 ft 460 kts 142°
2026-05-06 16:53 55.41323 17.18463 32474 ft 462 kts 141°
2026-05-06 16:54 55.38931 17.22253 31681 ft 462 kts 141°
2026-05-06 16:54 55.36548 17.26022 30979 ft 460 kts 141°
2026-05-06 16:54 55.34172 17.29776 30321 ft 458 kts 141°
2026-05-06 16:54 55.31812 17.33500 29694 ft 455 kts 140°
2026-05-06 16:55 55.29467 17.37195 29040 ft 451 kts 141°
2026-05-06 16:55 55.27136 17.40861 28321 ft 449 kts 141°
2026-05-06 16:55 55.24817 17.44497 27657 ft 446 kts 141°
2026-05-06 16:55 55.22497 17.48119 26693 ft 448 kts 143°
2026-05-06 16:56 55.19951 17.51247 25672 ft 448 kts 153°
2026-05-06 16:56 55.17275 17.54092 24684 ft 453 kts 150°
2026-05-06 16:56 55.14661 17.57216 23731 ft 457 kts 148°
2026-05-06 16:56 55.12091 17.60512 22660 ft 459 kts 146°
2026-05-06 16:57 55.09535 17.63873 21596 ft 460 kts 146°
2026-05-06 16:57 55.06971 17.67216 20592 ft 460 kts 147°
2026-05-06 16:57 55.04438 17.70440 19843 ft 454 kts 148°
2026-05-06 16:57 55.01848 17.73658 19084 ft 448 kts 148°
2026-05-06 16:58 54.99340 17.76715 18344 ft 443 kts 150°
2026-05-06 16:58 54.96819 17.79757 17562 ft 438 kts 150°
2026-05-06 16:58 54.94328 17.82757 16777 ft 433 kts 150°
2026-05-06 16:58 54.91864 17.85727 16003 ft 429 kts 149°
2026-05-06 16:59 54.89424 17.88674 15252 ft 425 kts 149°
2026-05-06 16:59 54.87007 17.91597 14512 ft 422 kts 149°
2026-05-06 16:59 54.84603 17.94498 13783 ft 420 kts 149°
2026-05-06 16:59 54.82214 17.97380 13052 ft 417 kts 149°
2026-05-06 17:00 54.79848 18.00239 12352 ft 413 kts 148°
2026-05-06 17:00 54.77528 18.03100 11825 ft 405 kts 147°
2026-05-06 17:00 54.75270 18.05940 11317 ft 397 kts 147°
2026-05-06 17:00 54.73072 18.08733 10930 ft 385 kts 147°
2026-05-06 17:01 54.70967 18.11413 10829 ft 365 kts 148°
2026-05-06 17:01 54.68980 18.13934 10791 ft 346 kts 148°
2026-05-06 17:01 54.67019 18.16131 10659 ft 325 kts 160°
2026-05-06 17:01 54.64934 18.17228 10457 ft 306 kts 176°
2026-05-06 17:02 54.62838 18.17183 9966 ft 300 kts 193°
2026-05-06 17:02 54.60887 18.16043 9460 ft 294 kts 209°
2026-05-06 17:02 54.59168 18.14281 8796 ft 280 kts 212°